TimeEDT,TemperatureF,Dew PointF,Humidity,Sea Level PressureIn,VisibilityMPH,Wind Direction,Wind SpeedMPH,Gust SpeedMPH,PrecipitationIn,Events,Conditions,WindDirDegrees,DateUTC
12:53 AM,45.0,42.1,90,29.96,6.0,ENE,4.6,-,N/A,,Clear,70,2012-10-18 04:53:00
1:53 AM,45.0,42.1,90,29.95,6.0,East,4.6,-,N/A,,Clear,90,2012-10-18 05:53:00
2:53 AM,46.0,43.0,89,29.94,6.0,ENE,3.5,-,N/A,,Clear,60,2012-10-18 06:53:00
3:53 AM,48.0,44.1,86,29.94,7.0,East,3.5,-,N/A,,Mostly Cloudy,90,2012-10-18 07:53:00
4:53 AM,46.9,44.1,90,29.94,6.0,ENE,4.6,-,N/A,,Mostly Cloudy,70,2012-10-18 08:53:00
5:53 AM,48.0,46.0,93,29.96,5.0,East,4.6,-,N/A,,Overcast,100,2012-10-18 09:53:00
6:21 AM,48.2,46.4,93,29.96,5.0,ESE,3.5,-,N/A,,Overcast,110,2012-10-18 10:21:00
6:53 AM,50.0,46.9,89,29.97,6.0,ESE,4.6,-,N/A,,Overcast,120,2012-10-18 10:53:00
7:53 AM,51.1,48.0,89,29.96,4.0,SE,6.9,-,N/A,,Overcast,130,2012-10-18 11:53:00
8:53 AM,52.0,50.0,93,29.98,4.0,South,6.9,-,N/A,,Overcast,170,2012-10-18 12:53:00
9:53 AM,55.0,51.1,86,29.99,5.0,SSE,6.9,-,N/A,,Mostly Cloudy,160,2012-10-18 13:53:00
10:02 AM,55.4,51.8,88,29.98,6.0,East,5.8,-,N/A,,Haze,100,2012-10-18 14:02:00
10:11 AM,55.4,51.8,88,29.98,6.0,East,4.6,-,N/A,,Haze,100,2012-10-18 14:11:00
10:18 AM,55.4,51.8,88,29.98,6.0,ESE,4.6,-,N/A,,Haze,110,2012-10-18 14:18:00
10:53 AM,59.0,52.0,78,29.98,7.0,SSE,6.9,-,N/A,,Mostly Cloudy,150,2012-10-18 14:53:00
11:14 AM,60.8,51.8,72,29.97,8.0,South,9.2,-,N/A,,Scattered Clouds,170,2012-10-18 15:14:00
11:53 AM,63.0,52.0,67,29.97,10.0,South,9.2,-,N/A,,Partly Cloudy,170,2012-10-18 15:53:00
12:53 PM,64.0,48.0,56,29.93,10.0,SSE,20.7,25.3,N/A,,Partly Cloudy,160,2012-10-18 16:53:00
1:53 PM,66.9,48.0,51,29.89,10.0,SSE,16.1,27.6,N/A,,Clear,150,2012-10-18 17:53:00
2:53 PM,69.1,46.0,44,29.88,10.0,South,12.7,21.9,N/A,,Clear,180,2012-10-18 18:53:00
3:53 PM,66.0,48.9,54,29.89,10.0,SE,12.7,-,N/A,,Mostly Cloudy,130,2012-10-18 19:53:00
4:53 PM,64.0,50.0,60,29.88,10.0,SE,15.0,-,N/A,,Clear,130,2012-10-18 20:53:00
5:53 PM,63.0,50.0,63,29.89,10.0,SE,12.7,-,N/A,,Overcast,130,2012-10-18 21:53:00
6:53 PM,61.0,48.9,64,29.90,10.0,ESE,9.2,-,N/A,,Mostly Cloudy,120,2012-10-18 22:53:00
7:53 PM,61.0,50.0,67,29.91,10.0,ESE,9.2,-,N/A,,Overcast,120,2012-10-18 23:53:00
8:53 PM,59.0,52.0,78,29.88,10.0,ESE,10.4,-,0.00,Rain,Light Rain,120,2012-10-19 00:53:00
9:53 PM,57.9,55.0,90,29.87,5.0,ESE,5.8,-,0.07,Rain,Light Rain,110,2012-10-19 01:53:00
10:48 PM,59.0,55.4,88,29.85,10.0,East,5.8,-,0.00,,Overcast,100,2012-10-19 02:48:00
10:53 PM,59.0,55.9,90,29.85,10.0,ESE,6.9,-,0.00,,Overcast,110,2012-10-19 02:53:00
11:53 PM,60.1,55.0,83,29.83,10.0,ESE,5.8,-,N/A,,Overcast,110,2012-10-19 03:53:00